| time (UTC) | temp F | wind direction | speed knots | gust knots | rain 1hr in | rain 24hr in | rain mn in | humidity % | barometer mb |
| 20260831191619 | 80 | 112 | 3.5 | 12.2 | 0.00 | 0.12 | 0.12 | 71 | 1015.0 |
| 20260831190719 | 80 | 124 | 3.5 | 8.7 | 0.00 | 0.12 | 0.12 | 71 | 1014.9 |
| 20260831185819 | 80 | 144 | 3.5 | 9.6 | 0.00 | 0.12 | 0.12 | 70 | 1015.0 |
| 20260831184919 | 79 | 154 | 4.3 | 8.7 | 0.00 | 0.12 | 0.12 | 70 | 1015.3 |
| 20260831183119 | 79 | 153 | 4.3 | 9.6 | 0.00 | 0.12 | 0.12 | 75 | 1014.9 |
| 20260831182219 | 79 | 149 | 2.6 | 11.3 | 0.00 | 0.12 | 0.12 | 76 | 1014.8 |
| 20260831181319 | 79 | 123 | 3.5 | 7.8 | 0.00 | 0.12 | 0.12 | 78 | 1014.9 |
| 20260831180419 | 78 | 104 | 3.5 | 7.8 | 0.00 | 0.12 | 0.12 | 82 | 1015.0 |
| 20260831175519 | 78 | 96 | 3.5 | 5.2 | 0.00 | 0.12 | 0.12 | 84 | 1015.3 |
| 20260831174619 | 77 | 86 | 4.3 | 7.8 | 0.00 | 0.12 | 0.12 | 84 | 1015.5 |
| 20260831173719 | 77 | 75 | 2.6 | 7.8 | 0.00 | 0.12 | 0.12 | 84 | 1015.6 |
| 20260831172819 | 77 | 60 | 2.6 | 7.0 | 0.00 | 0.12 | 0.12 | 84 | 1015.9 |
| 20260831171919 | 77 | 67 | 3.5 | 7.0 | 0.00 | 0.12 | 0.12 | 84 | 1015.6 |
| 20260831171019 | 76 | 70 | 3.5 | 6.1 | 0.01 | 0.12 | 0.12 | 84 | 1015.3 |
| 20260831170119 | 76 | 78 | 4.3 | 7.8 | 0.02 | 0.12 | 0.12 | 84 | 1015.2 |
| 20260831165219 | 75 | 90 | 5.2 | 9.6 | 0.03 | 0.12 | 0.12 | 85 | 1015.3 |
| 20260831164319 | 76 | 80 | 4.3 | 8.7 | 0.05 | 0.12 | 0.12 | 85 | 1015.3 |
| 20260831162519 | 75 | 63 | 4.3 | 10.4 | 0.09 | 0.12 | 0.12 | 85 | 1015.1 |
| 20260831161619 | 75 | 65 | 4.3 | 8.7 | 0.10 | 0.12 | 0.12 | 85 | 1015.1 |
| 20260831160719 | 75 | 60 | 5.2 | 9.6 | 0.10 | 0.11 | 0.11 | 85 | 1015.1 |
| 20260831155819 | 75 | 85 | 7.0 | 11.3 | 0.09 | 0.10 | 0.10 | 85 | 1015.0 |
| 20260831154919 | 75 | 89 | 5.2 | 11.3 | 0.07 | 0.08 | 0.08 | 84 | 1014.8 |
| 20260831154019 | 76 | 88 | 3.5 | 7.8 | 0.05 | 0.06 | 0.06 | 84 | 1015.2 |
| 20260831153119 | 76 | 102 | 2.6 | 7.0 | 0.03 | 0.04 | 0.04 | 83 | 1015.4 |
| 20260831152219 | 76 | 125 | 0.9 | 6.1 | 0.02 | 0.02 | 0.03 | 81 | 1015.4 |
| 20260831151319 | 76 | 131 | 2.6 | 6.1 | 0.01 | 0.01 | 0.01 | 79 | 1015.5 |
| 20260831150419 | 76 | 121 | 4.3 | 10.4 | 0.01 | 0.01 | 0.01 | 78 | 1015.2 |
| 20260831145519 | 76 | 123 | 4.3 | 10.4 | 0.01 | 0.01 | 0.01 | 79 | 1015.0 |
| 20260831144619 | 77 | 123 | 2.6 | 10.4 | 0.01 | 0.01 | 0.01 | 79 | 1014.7 |
| 20260831143719 | 77 | 125 | 3.5 | 8.7 | 0.01 | 0.01 | 0.01 | 78 | 1014.7 |
| 20260831142819 | 78 | 118 | 5.2 | 9.6 | 0.00 | 0.00 | 0.00 | 76 | 1014.5 |
| 20260831141919 | 79 | 113 | 7.0 | 11.3 | 0.00 | 0.00 | 0.00 | 71 | 1014.2 |
| 20260831141019 | 79 | 108 | 7.8 | 13.0 | 0.00 | 0.00 | 0.00 | 69 | 1014.1 |
| 20260831140119 | 80 | 103 | 7.8 | 16.5 | 0.00 | 0.00 | 0.00 | 68 | 1013.6 |
| 20260831135219 | 81 | 103 | 7.0 | 14.8 | 0.00 | 0.00 | 0.00 | 66 | 1013.2 |
| 20260831134319 | 81 | 105 | 5.2 | 14.8 | 0.00 | 0.00 | 0.00 | 63 | 1013.1 |
| 20260831133419 | 82 | 106 | 1.7 | 9.6 | 0.00 | 0.00 | 0.00 | 61 | 1012.7 |
| 20260831132519 | 81 | 136 | 1.7 | 4.3 | 0.00 | 0.00 | 0.00 | 62 | 1012.7 |
| 20260831131619 | 81 | 148 | 2.6 | 7.8 | 0.00 | 0.00 | 0.00 | 63 | 1012.4 |
| 20260831130719 | 81 | 155 | 2.6 | 8.7 | 0.00 | 0.00 | 0.00 | 64 | 1012.1 |
| 20260831125819 | 81 | 155 | 3.5 | 7.8 | 0.00 | 0.00 | 0.00 | 64 | 1012.1 |
| 20260831124919 | 81 | 158 | 2.6 | 10.4 | 0.00 | 0.00 | 0.00 | 64 | 1012.0 |
| 20260831124018 | 81 | 166 | 3.5 | 7.8 | 0.00 | 0.00 | 0.00 | 63 | 1012.0 |
| 20260831123118 | 81 | 154 | 2.6 | 7.8 | 0.00 | 0.00 | 0.00 | 63 | 1011.8 |
| 20260831122219 | 81 | 163 | 1.7 | 5.2 | 0.00 | 0.00 | 0.00 | 63 | 1011.6 |
| 20260831121318 | 81 | 193 | 2.6 | 7.8 | 0.00 | 0.00 | 0.00 | 64 | 1011.5 |
| 20260831120418 | 82 | 171 | 0.9 | 7.8 | 0.00 | 0.00 | 0.00 | 62 | 1011.3 |
| 20260831114619 | 81 | 38 | 0.0 | 1.7 | 0.00 | 0.00 | 0.00 | 59 | 1010.9 |
| 20260831113718 | 81 | 38 | 0.9 | 1.7 | 0.00 | 0.00 | 0.00 | 60 | 1010.8 |
| 20260831112818 | 81 | 45 | 1.7 | 5.2 | 0.00 | 0.00 | 0.00 | 59 | 1010.8 |
| 20260831111919 | 81 | 46 | 2.6 | 5.2 | 0.00 | 0.00 | 0.00 | 59 | 1010.8 |
| 20260831111019 | 81 | 57 | 3.5 | 9.6 | 0.00 | 0.00 | 0.00 | 59 | 1010.8 |
| 20260831110119 | 82 | 61 | 3.5 | 9.6 | 0.00 | 0.00 | 0.00 | 58 | 1010.7 |
| 20260831105219 | 82 | 57 | 2.6 | 10.4 | 0.00 | 0.00 | 0.00 | 58 | 1010.5 |
| 20260831104318 | 81 | 61 | 3.5 | 7.8 | 0.00 | 0.00 | 0.00 | 58 | 1010.3 |
| 20260831103419 | 81 | 49 | 3.5 | 7.8 | 0.00 | 0.00 | 0.00 | 59 | 1009.9 |
| 20260831102518 | 81 | 44 | 4.3 | 11.3 | 0.00 | 0.00 | 0.00 | 60 | 1009.7 |
| 20260831101618 | 81 | 55 | 3.5 | 11.3 | 0.00 | 0.00 | 0.00 | 60 | 1009.6 |
| 20260831100719 | 81 | 68 | 2.6 | 7.0 | 0.00 | 0.00 | 0.00 | 59 | 1009.9 |
| 20260831094918 | 81 | 71 | 5.2 | 12.2 | 0.00 | 0.00 | 0.00 | 58 | 1009.7 |
| 20260831094018 | 81 | 67 | 6.1 | 11.3 | 0.00 | 0.00 | 0.00 | 57 | 1009.8 |
| 20260831092218 | 80 | 75 | 7.0 | 15.6 | 0.00 | 0.00 | 0.00 | 60 | 1010.1 |
| 20260831091318 | 80 | 82 | 9.6 | 16.5 | 0.00 | 0.00 | 0.00 | 62 | 1010.1 |
| 20260831090418 | 80 | 78 | 8.7 | 17.4 | 0.00 | 0.00 | 0.00 | 63 | 1010.3 |
| 20260831085518 | 80 | 71 | 8.7 | 15.6 | 0.00 | 0.00 | 0.00 | 64 | 1010.5 |
| 20260831084618 | 80 | 69 | 7.8 | 14.8 | 0.00 | 0.00 | 0.00 | 65 | 1010.3 |
| 20260831083718 | 80 | 76 | 7.8 | 14.8 | 0.00 | 0.00 | 0.00 | 65 | 1010.5 |
| 20260831081918 | 81 | 61 | 5.2 | 12.2 | 0.00 | 0.00 | 0.00 | 63 | 1010.6 |
| 20260831081018 | 81 | 60 | 4.3 | 10.4 | 0.00 | 0.00 | 0.00 | 64 | 1010.8 |
| 20260831080118 | 81 | 49 | 3.5 | 10.4 | 0.00 | 0.00 | 0.00 | 65 | 1010.7 |
| 20260831075218 | 81 | 24 | 4.3 | 7.8 | 0.00 | 0.00 | 0.00 | 67 | 1010.9 |
| 20260831074318 | 81 | 341 | 6.1 | 12.2 | 0.00 | 0.00 | 0.00 | 67 | 1010.9 |
| 20260831073418 | 80 | 337 | 4.3 | 12.2 | 0.00 | 0.00 | 0.00 | 69 | 1010.8 |
| 20260831072518 | 80 | 357 | 5.2 | 13.0 | 0.00 | 0.00 | 0.00 | 69 | 1011.1 |
| 20260831070718 | 82 | 30 | 7.8 | 15.6 | 0.00 | 0.00 | 0.00 | 68 | 1010.5 |
| 20260831065818 | 82 | 354 | 8.7 | 19.1 | 0.00 | 0.00 | 0.00 | 67 | 1010.5 |
| 20260831064918 | 82 | 345 | 8.7 | 17.4 | 0.00 | 0.00 | 0.00 | 67 | 1009.9 |
| 20260831064018 | 82 | 339 | 7.8 | 21.7 | 0.00 | 0.00 | 0.00 | 68 | 1009.8 |
| 20260831063118 | 82 | 349 | 9.6 | 18.2 | 0.00 | 0.00 | 0.00 | 68 | 1009.7 |
| 20260831062218 | 82 | 346 | 8.7 | 18.2 | 0.00 | 0.00 | 0.00 | 65 | 1009.6 |
| 20260831061318 | 83 | 347 | 7.0 | 19.1 | 0.00 | 0.00 | 0.00 | 61 | 1009.8 |
| 20260831060418 | 83 | 358 | 5.2 | 17.4 | 0.00 | 0.00 | 0.00 | 62 | 1009.9 |
| 20260831054618 | 85 | 271 | 2.6 | 8.7 | 0.00 | 0.00 | 0.00 | 60 | 1009.1 |
| 20260831052818 | 83 | 253 | 6.1 | 12.2 | 0.00 | 0.00 | 0.00 | 64 | 1008.9 |
| 20260831051018 | 82 | 229 | 6.1 | 18.2 | 0.00 | 0.00 | 0.00 | 65 | 1009.6 |
| 20260831045218 | 85 | 213 | 7.0 | 17.4 | 0.00 | 0.00 | 0.00 | 56 | 1010.0 |
| 20260831044318 | 86 | 198 | 9.6 | 18.2 | 0.00 | 0.00 | 0.00 | 55 | 1009.7 |
| 20260831043418 | 87 | 201 | 8.7 | 22.6 | 0.00 | 0.00 | 0.00 | 52 | 1009.3 |
| 20260831041618 | 89 | 202 | 7.8 | 18.2 | 0.00 | 0.00 | 0.00 | 46 | 1009.0 |
| 20260831040718 | 91 | 201 | 6.1 | 19.1 | 0.00 | 0.00 | 0.00 | 46 | 1008.9 |
| 20260831035818 | 92 | 201 | 7.0 | 19.1 | 0.00 | 0.00 | 0.00 | 45 | 1008.6 |
| 20260831034918 | 94 | 206 | 6.1 | 17.4 | 0.00 | 0.00 | 0.00 | 41 | 1008.6 |
| 20260831033118 | 100 | 306 | 0.9 | 4.3 | 0.00 | 0.00 | 0.00 | 32 | 1007.6 |
| 20260831032218 | 100 | 344 | 0.9 | 3.5 | 0.00 | 0.00 | 0.00 | 32 | 1007.5 |
| 20260831031318 | 100 | 341 | 0.9 | 2.6 | 0.00 | 0.00 | 0.00 | 32 | 1007.4 |
| 20260831030418 | 101 | 327 | 1.7 | 4.3 | 0.00 | 0.00 | 0.00 | 32 | 1007.3 |
| 20260831025518 | 101 | 302 | 2.6 | 5.2 | 0.00 | 0.00 | 0.00 | 32 | 1007.1 |
| 20260831024618 | 101 | 292 | 2.6 | 7.8 | 0.00 | 0.00 | 0.00 | 32 | 1007.2 |
| 20260831023718 | 101 | 301 | 1.7 | 7.0 | 0.00 | 0.00 | 0.00 | 32 | 1006.9 |
| 20260831022818 | 101 | 271 | 2.6 | 5.2 | 0.00 | 0.00 | 0.00 | 32 | 1006.8 |
| 20260831021018 | 101 | 304 | 1.7 | 4.3 | 0.00 | 0.00 | 0.00 | 31 | 1006.3 |
| 20260831020118 | 102 | 254 | 2.6 | 4.3 | 0.00 | 0.00 | 0.00 | 31 | 1006.3 |
| 20260831015218 | 102 | 267 | 3.5 | 7.0 | 0.00 | 0.00 | 0.00 | 31 | 1006.2 |
| 20260831014318 | 102 | 260 | 2.6 | 7.0 | 0.00 | 0.00 | 0.00 | 30 | 1006.0 |
| 20260831013418 | 102 | 297 | 2.6 | 6.1 | 0.00 | 0.00 | 0.00 | 30 | 1005.8 |
| 20260831012518 | 103 | 308 | 1.7 | 8.7 | 0.00 | 0.00 | 0.00 | 30 | 1005.8 |
| 20260831011618 | 103 | 285 | 0.9 | 2.6 | 0.00 | 0.00 | 0.00 | 30 | 1005.8 |
| 20260831010718 | 103 | 281 | 0.9 | 3.5 | 0.00 | 0.00 | 0.00 | 30 | 1005.9 |
| 20260831004018 | 104 | 255 | 3.5 | 7.0 | 0.00 | 0.00 | 0.00 | 29 | 1006.2 |
| 20260831003118 | 104 | 262 | 3.5 | 11.3 | 0.00 | 0.00 | 0.00 | 29 | 1006.2 |
| 20260831002218 | 105 | 280 | 1.7 | 6.1 | 0.00 | 0.00 | 0.00 | 28 | 1006.1 |
| 20260831001318 | 104 | 44 | 1.7 | 4.3 | 0.00 | 0.00 | 0.00 | 28 | 1006.1 |
| 20260831000417 | 104 | 81 | 1.7 | 3.5 | 0.00 | 0.00 | 0.00 | 28 | 1006.3 |
| 20260830235517 | 104 | 358 | 1.7 | 6.1 | 0.00 | 0.00 | 0.00 | 28 | 1006.4 |
| 20260830234617 | 106 | 254 | 2.6 | 7.0 | 0.00 | 0.00 | 0.00 | 28 | 1006.4 |
| 20260830233718 | 106 | 263 | 4.3 | 7.8 | 0.00 | 0.00 | 0.00 | 28 | 1006.5 |
| 20260830232817 | 106 | 300 | 4.3 | 9.6 | 0.00 | 0.00 | 0.00 | 27 | 1006.6 |
| 20260830231918 | 106 | 293 | 5.2 | 9.6 | 0.00 | 0.00 | 0.00 | 27 | 1006.7 |
| 20260830231018 | 106 | 311 | 3.5 | 9.6 | 0.00 | 0.00 | 0.00 | 27 | 1006.8 |
| 20260830225218 | 107 | 303 | 2.6 | 7.8 | 0.00 | 0.00 | 0.00 | 27 | 1007.1 |
| 20260830223417 | 106 | 237 | 2.6 | 7.0 | 0.00 | 0.00 | 0.00 | 28 | 1007.5 |
| 20260830222517 | 107 | 259 | 3.5 | 8.7 | 0.00 | 0.00 | 0.00 | 27 | 1007.6 |
| 20260830221617 | 107 | 280 | 2.6 | 10.4 | 0.00 | 0.00 | 0.00 | 27 | 1007.7 |
| 20260830220717 | 106 | 340 | 2.6 | 7.0 | 0.00 | 0.00 | 0.00 | 27 | 1007.9 |
| 20260830215817 | 107 | 330 | 2.6 | 7.0 | 0.00 | 0.00 | 0.00 | 27 | 1008.2 |
| 20260830214917 | 106 | 239 | 2.6 | 7.8 | 0.00 | 0.00 | 0.00 | 27 | 1008.4 |
| 20260830213117 | 106 | 359 | 2.6 | 7.0 | 0.00 | 0.00 | 0.00 | 27 | 1008.9 |
| 20260830212218 | 105 | 91 | 3.5 | 8.7 | 0.00 | 0.00 | 0.00 | 28 | 1008.9 |
| 20260830211317 | 105 | 138 | 2.6 | 8.7 | 0.00 | 0.00 | 0.00 | 28 | 1009.1 |
| 20260830210417 | 105 | 176 | 2.6 | 6.1 | 0.00 | 0.00 | 0.00 | 28 | 1009.3 |
| 20260830205517 | 105 | 196 | 2.6 | 7.0 | 0.00 | 0.00 | 0.00 | 28 | 1009.4 |
| 20260830204617 | 106 | 253 | 2.6 | 7.0 | 0.00 | 0.00 | 0.00 | 28 | 1009.7 |
| 20260830203717 | 106 | 226 | 2.6 | 7.0 | 0.00 | 0.00 | 0.00 | 29 | 1009.9 |
| 20260830202817 | 104 | 161 | 2.6 | 9.6 | 0.00 | 0.00 | 0.00 | 30 | 1010.0 |
| 20260830201917 | 105 | 49 | 2.6 | 7.0 | 0.00 | 0.00 | 0.00 | 30 | 1010.2 |
| 20260830200117 | 104 | 272 | 2.6 | 7.8 | 0.00 | 0.00 | 0.00 | 30 | 1010.5 |
| 20260830195217 | 103 | 163 | 2.6 | 8.7 | 0.00 | 0.00 | 0.00 | 31 | 1010.7 |
| 20260830194317 | 103 | 164 | 2.6 | 9.6 | 0.00 | 0.00 | 0.00 | 31 | 1010.7 |
| 20260830193417 | 103 | 142 | 2.6 | 7.8 | 0.00 | 0.00 | 0.00 | 30 | 1010.8 |